KF5CFW Weather Reports


time (UTC)temp
C
wind
direction
speed
KPH
gust
KPH
rain 1hr
cm
rain 24hr
cm
rain mn
cm
humidity
%
barometer
mb
20260902141525 29 141 0.0 0.0 0.00 0.00 0.00 59 1014.4
20260902140026 28 141 0.0 0.0 0.00 0.00 0.00 59 1014.4
20260902134533 28 142 0.0 0.0 0.00 0.00 0.00 57 1014.4
20260902133025 27 158 0.0 1.6 0.00 0.00 0.00 53 1014.4
20260902131537 27 136 0.0 1.6 0.00 0.00 0.00 49 1014.4
20260902130025 26 136 0.0 1.6 0.00 0.00 0.00 45 1014.0
20260902124519 26 136 0.0 0.0 0.00 0.00 0.00 43 1013.9
20260902123018 26 136 0.0 0.0 0.00 0.00 0.00 41 1013.7
20260902121517 26 136 0.0 0.0 0.00 0.00 0.00 42 1013.5
20260902120016 26 137 0.0 0.0 0.00 0.00 0.00 44 1013.6
20260902114516 26 137 0.0 0.0 0.00 0.00 0.00 46 1013.6
20260902113012 26 137 0.0 0.0 0.00 0.00 0.00 48 1013.6
20260902111510 26 136 0.0 0.0 0.00 0.00 0.00 48 1013.5
20260902110014 26 136 0.0 0.0 0.00 0.00 0.00 50 1013.6
20260902104510 26 136 0.0 0.0 0.00 0.00 0.00 51 1013.6
20260902103007 26 136 0.0 0.0 0.00 0.00 0.00 53 1013.5
20260902101506 26 137 0.0 0.0 0.00 0.00 0.00 53 1013.5
20260902100005 26 136 0.0 0.0 0.00 0.00 0.00 55 1013.4
20260902094502 27 136 0.0 0.0 0.00 0.00 0.00 58 1013.4
20260902093105 27 136 0.0 0.0 0.00 0.00 0.00 59 1013.4
20260902091559 27 136 0.0 0.0 0.00 0.00 0.00 60 1013.4
20260902084558 28 136 0.0 0.0 0.00 0.00 0.00 60 1013.4
20260902083053 28 136 0.0 1.6 0.00 0.00 0.00 60 1013.4
20260902081552 28 138 0.0 1.6 0.00 0.00 0.00 60 1013.4
20260902080051 28 154 0.0 0.0 0.00 0.00 0.00 60 1013.4
20260902074557 28 124 0.0 1.6 0.00 0.00 0.00 60 1013.4
20260902073047 29 158 0.0 1.6 0.00 0.00 0.00 60 1013.4
20260902071545 29 158 0.0 1.6 0.00 0.00 0.00 59 1013.5
20260902070044 29 145 0.0 1.6 0.00 0.00 0.00 59 1013.5
20260902064545 29 146 0.0 1.6 0.00 0.00 0.00 59 1013.5
20260902063041 30 152 0.0 1.6 0.00 0.00 0.00 59 1013.4
20260902061556 30 141 0.0 1.6 0.00 0.00 0.00 59 1013.3
20260902060049 30 145 0.0 3.2 0.00 0.00 0.00 58 1013.1
20260902054548 30 157 0.0 1.6 0.00 0.00 0.00 58 1013.1
20260902053041 30 148 0.0 3.2 0.00 0.00 0.00 58 1013.0
20260902051532 30 156 0.0 0.0 0.00 0.00 0.00 57 1012.9
20260902050032 31 148 0.0 3.2 0.00 0.00 0.00 56 1012.9
20260902044536 31 163 0.0 1.6 0.00 0.00 0.00 55 1013.0
20260902043029 31 148 0.0 1.6 0.00 0.00 0.00 54 1012.9
20260902041529 31 94 0.0 1.6 0.00 0.00 0.00 52 1012.7
20260902040028 31 148 0.0 0.0 0.00 0.00 0.00 52 1012.5
20260902034529 31 148 0.0 0.0 0.00 0.00 0.00 51 1012.6
20260902033027 32 148 0.0 0.0 0.00 0.00 0.00 51 1012.6
20260902031526 32 148 0.0 0.0 0.00 0.00 0.00 50 1012.5
20260902030025 32 148 0.0 0.0 0.00 0.00 0.00 51 1012.3
20260902024531 32 148 0.0 0.0 0.00 0.00 0.00 50 1012.0
20260902023025 32 148 0.0 0.0 0.00 0.00 0.00 49 1011.8
20260902021524 32 148 0.0 0.0 0.00 0.00 0.00 49 1011.7
20260902020023 32 148 0.0 0.0 0.00 0.00 0.00 48 1011.5
20260902014524 33 148 0.0 0.0 0.00 0.00 0.00 47 1011.3
20260902013023 33 148 0.0 0.0 0.00 0.00 0.00 46 1011.1
20260902011523 33 148 0.0 0.0 0.00 0.00 0.00 46 1011.0
20260902010022 33 148 0.0 1.6 0.00 0.00 0.00 45 1010.9
20260902004521 34 165 0.0 1.6 0.00 0.00 0.00 44 1010.9
20260902003022 35 127 0.0 1.6 0.00 0.00 0.00 44 1011.0
20260902001519 35 127 0.0 0.0 0.00 0.00 0.00 43 1011.0
20260902000017 35 127 0.0 0.0 0.00 0.00 0.00 42 1011.1
20260901234516 35 138 0.0 0.0 0.00 0.00 0.00 41 1011.3
20260901233016 36 95 0.0 1.6 0.00 0.00 0.00 39 1011.2
20260901231514 37 127 0.0 1.6 0.00 0.00 0.00 37 1011.2
20260901230014 38 144 0.0 1.6 0.00 0.00 0.00 36 1011.2
20260901224513 38 136 0.0 1.6 0.00 0.00 0.00 35 1011.2
20260901223012 38 154 0.0 1.6 0.00 0.00 0.00 35 1011.2
20260901221510 38 95 0.0 1.6 0.00 0.00 0.00 36 1011.3
20260901220015 37 62 0.0 3.2 0.00 0.00 0.00 36 1011.3
20260901214507 37 150 0.0 1.6 0.00 0.00 0.00 38 1011.5
20260901213011 37 44 0.0 0.0 0.00 0.00 0.00 37 1011.6
20260901211505 38 39 0.0 1.6 0.00 0.00 0.00 35 1011.8
20260901210004 38 151 0.0 1.6 0.00 0.00 0.00 35 1011.9
20260901204506 39 153 0.0 1.6 0.00 0.00 0.00 35 1012.0
20260901203002 38 348 0.0 1.6 0.00 0.00 0.00 35 1012.2
20260901201600 38 111 0.0 1.6 0.00 0.00 0.00 36 1012.4
20260901200058 39 237 0.0 1.6 0.00 0.00 0.00 35 1012.5
20260901194556 38 207 0.0 1.6 0.00 0.00 0.00 37 1012.7
20260901193056 37 146 0.0 1.6 0.00 0.00 0.00 39 1013.0
20260901190023 38 11 0.0 1.6 0.00 0.00 0.00 38 1013.3
20260901184520 38 38 0.0 1.6 0.00 0.00 0.00 37 1013.6
20260901183018 38 163 0.0 1.6 0.00 0.00 0.00 38 1013.9
20260901181515 37 155 0.0 3.2 0.00 0.00 0.00 39 1014.1
20260901180016 37 162 0.0 1.6 0.00 0.00 0.00 40 1014.3
20260901174512 37 65 0.0 1.6 0.00 0.00 0.00 40 1014.5
20260901173017 37 83 0.0 1.6 0.00 0.00 0.00 41 1014.8
20260901171512 37 56 0.0 1.6 0.00 0.00 0.00 41 1014.9
20260901170005 36 156 0.0 3.2 0.00 0.00 0.00 43 1015.1
20260901164505 36 139 0.0 3.2 0.00 0.00 0.00 44 1015.3
20260901163058 36 103 0.0 1.6 0.00 0.00 0.00 45 1015.4
20260901161607 35 198 0.0 1.6 0.00 0.00 0.00 47 1015.5
20260901160100 34 222 0.0 1.6 0.00 0.00 0.00 50 1015.4
20260901154554 33 321 0.0 1.6 0.00 0.00 0.00 52 1015.5
20260901153049 33 193 0.0 1.6 0.00 0.00 0.00 53 1015.4
20260901151539 32 235 0.0 1.6 0.00 0.00 0.00 56 1015.4
20260901150039 31 169 0.0 1.6 0.00 0.00 0.00 57 1015.5
20260901144538 31 217 0.0 0.0 0.00 0.00 0.00 58 1015.5
20260901143027 30 158 0.0 1.6 0.00 0.00 0.00 59 1015.7